Flag for Germany Weather past 2 weeks in Bad Hersfeld, Hesse, Germany

Now
34 °F

Passing clouds.


Feels Like: 31 °F
Forecast: 34 / 38 °F
Wind: 3 mph from Southwest

Location: Fritzlar Airport

Current Time: Jan 25, 2015 at 8:27:15 PM

Latest Report: Jan 25, 2015 at 7:20 PM


Visibility: N/A

Pressure: 30.33 "Hg

Humidity: 93%

Dew point: 32 °F

Location of Bad HersfeldLocation

Historic Weather in Bad Hersfeld — Graph

°F

Bad Hersfeld temperature yesterday

Maximum temperature yesterday: 36 °F (at 11:20 PM)
Minimum temperature yesterday: 28 °F (at 12:20 AM)
Average temperature yesterday: 31 °F

Past Weeks' High & Low Weather Summary

 TemperatureHumidityPressure
High50 °F (Jan 13, 2:20 PM)100% (Jan 16, 8:20 PM)30.36 "Hg (Jan 16, 8:20 PM)
Low23 °F (Jan 19, 5:20 AM)57% (Jan 10, 11:20 PM)29.53 "Hg (Jan 15, 6:20 PM)
Average36 °F84%29.95 "Hg
* Reported Jan 10 7:20 PM — Jan 25 7:20 PM, Bad Hersfeld, Weather by CustomWeather, © 2014

Note: Actual official high and low records may vary slightly from our data, if they occured in-between our weather recording intervals... More about our weather records

Advertising

Bad Hersfeld weather history for previous 24 hours

 ConditionsComfort  
Time TempWeatherWind HumidityBarometerVisibility
7:20 PM
Jan 25
34 °FPassing clouds.3 mph93%30.33 "HgN/A
6:20 PM34 °FPassing clouds.2 mph93%30.36 "HgN/A
5:20 PM36 °FPartly cloudy.1 mph87%30.33 "HgN/A
4:20 PM37 °FBroken clouds.2 mph87%30.33 "HgN/A
3:20 PM39 °FBroken clouds.3 mph81%30.33 "HgN/A
2:20 PM39 °FBroken clouds.2 mph81%30.33 "HgN/A
1:20 PM37 °FDrizzle. Broken clouds.2 mph87%30.33 "HgN/A
12:20 PM36 °FBroken clouds.3 mph87%30.33 "HgN/A
11:20 AM34 °FPartly sunny.2 mph93%30.36 "HgN/A
10:20 AM34 °FPartly sunny.1 mph87%30.36 "HgN/A
9:20 AM32 °FPartly sunny.2 mph100%30.36 "HgN/A
8:20 AM32 °FPartly sunny.2 mph93%30.33 "HgN/A
7:20 AM32 °FPassing clouds.2 mph87%30.33 "HgN/A
6:20 AM34 °FPassing clouds.2 mph93%30.30 "HgN/A
5:20 AM34 °FOvercast.2 mph93%30.30 "HgN/A
4:20 AM32 °FOvercast.1 mph93%30.27 "HgN/A
3:20 AM32 °FOvercast.1 mph93%30.27 "HgN/A
2:20 AM30 °FPassing clouds.3 mph93%30.27 "HgN/A
1:20 AM30 °FPartly cloudy.2 mph93%30.24 "HgN/A
12:20 AM34 °FPassing clouds.1 mph87%30.24 "HgN/A
11:20 PM
Jan 24
36 °FPassing clouds.7 mph81%30.21 "HgN/A
10:20 PM32 °FPassing clouds.2 mph93%30.21 "HgN/A
9:20 PM34 °FPassing clouds.2 mph93%30.18 "Hg4 mi
8:20 PM32 °FPassing clouds.2 mph100%30.18 "Hg4 mi
Weather by CustomWeather, © 2014

See weather overviewHow to use our weather pages